Regional Weather Roundup
Issued by NWS Goodland, KS

Home | Current Version | Previous Version | Graphics & Text | Print | Product List | Glossary On
Versions: 1 2 3 4 5 6 7 8 9 10 11 12 13 14 15 16 17 18 19 20 21 22 23 24 25 26 27 28 29 30 31 32 33 34 35 36 37 38 39 40 41 42 43 44 45 46 47 48 49 50
000
ASUS43 KGLD 240508
RWRGLD

GOODLAND FORECAST AREA HOURLY WEATHER ROUNDUP
NATIONAL WEATHER SERVICE GOODLAND KS
1100 PM MDT SUN JUL 23 2017

...OFFICIAL OBSERVATIONS...

CITY           SKY/WX    TMP DP  RH WIND       PRES   REMARKS
GOODLAND KS    CLEAR     67  55  65 S12       30.10R
HILL CITY KS   CLEAR     74  63  68 E7        30.02S
IMPERIAL NEB   PTCLDY    78  55  44 S10       30.05R
MCCOOK NEB     CLEAR     74  63  68 E6        30.03S
AKRON CO       CLEAR     72  54  53 S16       30.13R
BURLINGTON CO  CLEAR     68  57  68 S8        30.14R
LIMON CO       CLEAR     63  54  72 S7        30.21R
$$

...UNOFFICIAL OBSERVATIONS...

CITY           SKY/WX    TMP DP  RH WIND       PRES   REMARKS
LENORA KS        N/A     75  32  20 MISG        N/A
NORTON KS      CLEAR     70  61  73 E5        30.03S
SHARON SPRINGS   N/A     70  60  70 S6          N/A
TRENTON NEB      N/A     72  32  23 SE6         N/A
KIT CARSON CO    N/A     69  56  62 CALM        N/A
YUMA CO        FAIR      68  48  49 S9        30.10R
$$



USA.gov is the U.S. government's official web portal to all federal, state and local government web resources and services.